Location: Kellogg
(38.0159°N, 90.0546°W)
Time: 01:47:07
(UTC+00:00)

SR - Pass Details

Date: 16 September 2024
Orbit: 577 x 855 km, 66.7° (Epoch: 10 October)

Event Time Altitude Azimuth Distance (km) Brightness Sun altitude
Rises 17:24:46 0° 167° (SSE) 2,834 ? 53.6°
Reaches altitude 10° 17:27:46 10° 145° (SE) 1,907 ? 53.7°
Maximum altitude 17:30:21 16° 107° (ESE) 1,551 ? 53.8°
Drops below altitude 10° 17:32:54 10° 70° (ENE) 1,891 ? 53.9°
Sets 17:35:50 0° 48° (NE) 2,796 ? 54.0°
